map of APF home
APF - Airport
Location
City:  Naples, Florida, United States
Name:Naples Municipal Airport
ICAO:KAPF
IATA:APF
FAA LID:APF

Details
Type:Airport (Part 139 Class I)
Use:Public/Civil
Latitude:2609'09"N (26.152442)
Longitude:8146'32"W (-81.775638)
Datum:WGS 1984
Elevation:8 ft (2 m)
Variation:5.77W (WMM2015 magnetic declination)
-0.10 annual change
Runways:3
Longest:6600 × 150 ft (2012 × 45.5 m), paved

Time
Time Zone:UTC-5 (DST-4)
Local Time:

Weather
METAR:KAPF 111453Z 04010KT 10SM CLR 13/06 A3029 RMK AO2 SLP256 T01330061 50002
TAF:KAPF 111120Z 1112/1212 01006KT P6SM SKC
FM111600 33008KT P6SM FEW060
FM120000 VRB02KT P6SM FEW060

Related Locations
Nearby:
Farthest:USL: 11505 mi / 18515 km
Useless Loop, WA, AU

Find:

   beyond  
but within

Other Information
Maps:
Delays:
NOTAMs:
Links:
Sources:

  
flag of United States
flag of Florida
  

Airport Diagram

Airport diagram for APF

Airport diagram PDF

Sectional Chart

Flight Planning
at skyvector.com

Satellite Image

Google Maps Satellite view

 

Copyright © 2004-2017 Karl L. Swartz. All rights reserved.
The Great Circle Mapper name and logo are trademarks of the Great Circle Mapper.
All other trademarks mentioned herein belong to their respective owners.
Please see credits for attibutions and further copyright information.

  Follow gcmap on Facebook Follow gcmap on Twitter Follow gcmap on Google+ GCmap on LinkedIn

hCard Microformat

Geo Microformat